Flag for Germany Weather past 2 weeks in Suhl, Thuringia, Germany

Now
60 °F

Overcast.


Feels Like: 60 °F
Forecast: 48 / 61 °F
Wind: 1 mph from South

Location: Meiningen

Current Time: May 24, 2015 at 9:49:45 PM

Latest Report: May 24, 2015 at 9:00 PM


Visibility: 25 mi

Pressure: 30.03 "Hg

Humidity: 69%

Dew point: 49 °F

Location of SuhlLocation

Historic Weather in Suhl — Graph

°F

Suhl temperature yesterday

Maximum temperature yesterday: 64 °F (at 1:00 PM)
Minimum temperature yesterday: 49 °F (at 7:00 AM)
Average temperature yesterday: 56 °F

Past Weeks' High & Low Weather Summary

 TemperatureHumidityPressure
High79 °F (May 12, 4:00 PM)94% (May 21, 3:00 AM)30.38 "Hg (May 21, 3:00 AM)
Low37 °F (May 22, 6:00 AM)24% (May 15, 4:00 PM)29.67 "Hg (May 18, 8:00 PM)
Average54 °F60%30.09 "Hg
* Reported May 9 8:00 PM — May 24 8:00 PM, Suhl, Weather by CustomWeather, © 2015

Note: Actual official high and low records may vary slightly from our data, if they occured in-between our weather recording intervals... More about our weather records

Advertising

Suhl weather history for previous 24 hours

 ConditionsComfort  
Time TempWeatherWind HumidityBarometerVisibility
8:00 PM
Sun, May 24
61 °FOvercast.1 mph68%30.03 "Hg22 mi
7:00 PM61 °FOvercast.1 mph67%30.03 "Hg19 mi
6:00 PM60 °FOvercast.1 mph69%30.04 "Hg22 mi
4:00 PM61 °FOvercast.5 mph65%30.06 "Hg25 mi
3:00 PM66 °FOvercast.1 mph52%30.04 "Hg19 mi
2:00 PM61 °FOvercast.3 mph60%30.08 "Hg22 mi
1:00 PM61 °FOvercast.1 mph59%30.09 "Hg19 mi
12:00 PM60 °FOvercast.1 mph63%30.10 "Hg19 mi
10:00 AM55 °FOvercast.1 mph77%30.13 "Hg14 mi
9:00 AM54 °FOvercast.2 mph81%30.12 "Hg11 mi
8:00 AM54 °FOvercast.3 mph83%30.11 "Hg10 mi
7:00 AM52 °FOvercast.3 mph88%30.11 "Hg8 mi
6:00 AM51 °FPartly sunny.2 mph89%30.11 "Hg8 mi
4:00 AM53 °FPassing clouds.2 mph88%30.11 "Hg7 mi
3:00 AM54 °FPassing clouds.3 mph86%30.11 "Hg7 mi
2:00 AM54 °FOvercast.5 mph84%30.11 "Hg6 mi
1:00 AM55 °FOvercast.3 mph81%30.11 "Hg8 mi
12:00 AM55 °FOvercast.5 mph77%30.11 "Hg11 mi
10:00 PM
Sat, May 23
56 °FOvercast.3 mph70%30.09 "Hg14 mi
9:00 PM58 °FOvercast.5 mph66%30.08 "Hg13 mi
Weather by CustomWeather, © 2015

See weather overviewHow to use our weather pages